Date_and_time,latitude,longitude,wind_speed,RelWindDirFrom,WindDirFrom,air_pressure,air_temperature,relative_humidity,Temp,platform_speed_wrt_ground,air_pressure_at_mean_sea_level,platform_orientation
2019-10-12 23:50,50.630425,-96.9807583333333,8.2,12.0,310,974.74,1.6,100,5.69,0.0,1002.05,360.0
2019-10-13 00:00,50.630425,-96.9807583333333,9.5,13.8,311,974.79,1.6,100,5.70,0.0,1002.11,142.0
2019-10-13 00:10,50.630425,-96.98076,8.3,11.3,307,974.91,1.5,100,5.70,0.0,1002.23,142.0
2019-10-13 00:20,50.6304266666667,-96.98076,8.1,11.7,313,975.06,1.5,100,5.70,0.0,1002.39,142.0
2019-10-13 00:30,50.6304183333333,-96.9807566666667,8.8,12.7,315,975.15,1.5,100,5.70,0.0,1002.49,142.0
2019-10-13 00:40,50.6304283333333,-96.9807533333333,8.3,11.2,314,975.25,1.5,100,5.70,0.0,1002.59,142.0
2019-10-13 00:50,50.6304233333333,-96.9807566666667,8.0,12.2,315,975.34,1.5,100,5.68,0.0,1002.68,142.0
2019-10-13 01:00,50.6304266666667,-96.9807566666667,9.1,13.4,312,975.42,1.5,100,5.67,0.0,1002.77,360.0
2019-10-13 01:10,50.6304283333333,-96.9807566666667,8.4,11.7,309,975.41,1.4,100,5.67,0.0,1002.76,360.0
2019-10-13 01:20,50.6304416666667,-96.9807683333333,9.1,12.6,309,975.29,1.4,100,5.67,0.0,1002.64,360.0
2019-10-13 01:30,50.63044,-96.9807666666667,8.8,13.1,309,975.27,1.3,100,5.67,0.0,1002.62,360.0
2019-10-13 01:40,50.63044,-96.980765,8.4,12.0,312,975.35,1.4,100,5.68,0.0,1002.71,360.0
2019-10-13 01:50,50.6304383333333,-96.98076,9.1,14.3,313,975.36,1.5,100,5.69,0.0,1002.72,360.0
2019-10-13 02:00,50.630435,-96.9807633333333,8.9,12.6,309,975.29,1.5,100,5.69,0.0,1002.65,38.0
2019-10-13 02:10,50.630435,-96.9807616666667,9.1,12.2,311,975.26,1.5,100,5.70,0.0,1002.62,38.0
2019-10-13 02:20,50.6304366666667,-96.9807616666667,9.1,13.1,309,975.19,1.5,100,5.69,0.0,1002.55,38.0
2019-10-13 02:30,50.630435,-96.9807633333333,8.6,12.1,308,975.18,1.4,100,5.69,0.0,1002.54,38.0
2019-10-13 02:40,50.6304433333333,-96.98074,8.7,12.3,306,975.16,1.3,100,5.69,0.0,1002.52,38.0
2019-10-13 02:50,50.6304366666667,-96.9807583333333,8.7,12.3,307,975.14,1.3,100,5.70,0.0,1002.51,38.0
2019-10-13 03:00,50.630435,-96.9807616666667,8.9,12.9,306,975.08,1.2,100,5.71,0.0,1002.45,38.0
2019-10-13 03:10,50.6304333333333,-96.980765,9.2,14.3,308,975.10,1.2,100,5.71,0.0,1002.48,38.0
2019-10-13 03:20,50.6304316666667,-96.9807633333333,8.3,12.8,311,975.30,1.2,100,5.70,0.0,1002.68,38.0
2019-10-13 03:30,50.6304316666667,-96.9807633333333,10.0,14.7,307,975.36,1.2,100,5.70,0.0,1002.74,38.0
2019-10-13 03:40,50.6304366666667,-96.9807633333333,9.8,13.9,308,975.45,1.2,100,5.71,0.0,1002.83,38.0
2019-10-13 03:50,50.630445,-96.9807533333333,10.2,14.7,311,975.45,1.2,100,5.71,0.0,1002.83,38.0
2019-10-13 04:00,50.630445,-96.9807566666667,9.9,14.2,312,975.45,1.3,100,5.71,0.0,1002.82,18.9
2019-10-13 04:10,50.63044,-96.98076,9.5,13.4,311,975.44,1.3,100,5.69,0.0,1002.81,18.9
2019-10-13 04:20,50.6304366666667,-96.980755,8.9,12.7,309,975.41,1.3,100,5.64,0.0,1002.78,18.9
2019-10-13 04:30,50.6304333333333,-96.9807566666667,9.6,14.9,308,975.41,1.3,100,5.61,0.0,1002.79,18.9
2019-10-13 04:40,50.630435,-96.9807583333333,9.3,12.2,305,975.42,1.2,100,5.60,0.0,1002.81,18.9
2019-10-13 04:50,50.630435,-96.9807566666667,9.1,13.0,306,975.32,1.0,100,5.60,0.0,1002.71,18.9
2019-10-13 05:00,50.6304366666667,-96.9807533333333,9.5,12.6,313,975.33,1.1,100,5.59,0.0,1002.72,90.0
2019-10-13 05:10,50.6304383333333,-96.980805,9.3,14.8,315,975.32,1.1,100,5.61,0.0,1002.71,90.0
2019-10-13 05:20,50.6304333333333,-96.9807783333333,9.3,14.0,315,975.42,1.1,100,5.62,0.0,1002.82,90.0
2019-10-13 05:30,50.6304316666667,-96.9807716666667,8.3,11.8,321,975.58,1.2,100,5.62,0.0,1002.98,90.0
2019-10-13 05:40,50.6304333333333,-96.9807566666667,6.7,11.0,317,975.74,1.2,100,5.62,0.0,1003.15,90.0
2019-10-13 05:50,50.630435,-96.98076,7.9,12.2,306,975.76,1.1,100,5.62,0.0,1003.17,90.0
2019-10-13 06:00,50.6304366666667,-96.98076,8.2,11.2,308,975.88,1.2,100,5.62,0.0,1003.28,0.0
2019-10-13 06:10,50.6304366666667,-96.9807566666667,8.7,12.8,313,975.94,1.2,100,5.61,0.0,1003.34,0.0
2019-10-13 06:20,50.6304366666667,-96.9807633333333,7.9,11.6,309,976.05,1.2,100,5.60,0.0,1003.46,0.0
2019-10-13 06:30,50.6304366666667,-96.980755,7.7,11.6,313,976.11,1.2,100,5.58,0.0,1003.52,0.0
2019-10-13 06:40,50.630435,-96.9807566666667,8.2,12.4,310,976.15,1.2,100,5.57,0.0,1003.57,0.0
2019-10-13 06:50,50.630435,-96.980755,8.7,13.2,306,976.27,1.1,100,5.57,0.0,1003.70,0.0
2019-10-13 07:00,50.6304333333333,-96.980755,8.6,12.1,307,976.34,1.0,100,5.56,0.0,1003.76,142.0
2019-10-13 07:10,50.630435,-96.9807566666667,8.7,12.9,311,976.45,1.0,100,5.56,0.0,1003.88,142.0
2019-10-13 07:20,50.630435,-96.9807583333333,9.0,12.2,308,976.52,1.0,100,5.55,0.0,1003.95,142.0
2019-10-13 07:30,50.630435,-96.9807566666667,8.6,11.6,307,976.63,1.0,100,5.51,0.0,1004.07,142.0
2019-10-13 07:40,50.6304433333333,-96.9807616666667,9.1,11.5,307,976.68,1.0,100,5.49,0.0,1004.13,142.0
2019-10-13 07:50,50.6304366666667,-96.9807583333333,9.7,14.4,309,976.73,0.9,100,5.49,0.0,1004.18,142.0
2019-10-13 08:00,50.6304416666667,-96.9807566666667,9.8,13.2,307,976.82,0.9,100,5.51,0.0,1004.27,311.7
2019-10-13 08:10,50.6304366666667,-96.9807516666667,10.4,13.9,309,976.91,0.9,100,5.51,0.0,1004.36,311.7
2019-10-13 08:20,50.6304283333333,-96.9807533333333,8.2,11.9,301,977.10,0.9,100,5.51,0.0,1004.56,311.7
2019-10-13 08:30,50.6304283333333,-96.98075,7.1,10.4,297,977.21,0.9,100,5.50,0.0,1004.67,311.7
2019-10-13 08:40,50.63043,-96.9807533333333,8.1,11.1,303,977.20,0.9,100,5.50,0.0,1004.67,311.7
2019-10-13 08:50,50.630455,-96.9807816666667,10.0,14.7,309,977.17,0.9,100,5.50,0.0,1004.64,311.7
2019-10-13 09:00,50.6304333333333,-96.9807583333333,9.3,13.0,312,977.30,0.9,100,5.49,0.0,1004.77,142.0
2019-10-13 09:10,50.6304333333333,-96.9807566666667,8.8,11.9,313,977.42,0.9,100,5.48,0.0,1004.89,142.0
2019-10-13 09:20,50.6304333333333,-96.9807533333333,9.0,12.8,310,977.47,0.9,100,5.48,0.0,1004.95,142.0
2019-10-13 09:30,50.6304333333333,-96.9807533333333,9.4,13.4,311,977.45,0.9,100,5.49,0.0,1004.92,142.0
2019-10-13 09:40,50.630435,-96.980755,10.5,13.8,312,977.38,1.0,100,5.49,0.0,1004.85,142.0
2019-10-13 09:50,50.630435,-96.980755,9.8,13.2,311,977.49,1.0,100,5.49,0.0,1004.96,142.0
2019-10-13 10:00,50.6304333333333,-96.9807566666667,8.7,12.0,307,977.72,1.0,100,5.46,0.0,1005.20,0.0
2019-10-13 10:10,50.630435,-96.9807583333333,8.6,11.8,310,977.88,1.0,100,5.44,0.0,1005.36,0.0
2019-10-13 10:20,50.630435,-96.9807583333333,8.1,12.6,314,978.03,1.1,100,5.45,0.0,1005.51,0.0
2019-10-13 10:30,50.6304233333333,-96.9807616666667,7.5,10.8,314,978.08,1.2,100,5.45,0.0,1005.57,0.0
2019-10-13 10:40,50.630425,-96.9807516666667,7.8,10.3,314,978.14,1.2,100,5.44,0.0,1005.62,0.0
2019-10-13 10:50,50.6304233333333,-96.98075,8.7,11.6,313,978.14,1.2,100,5.46,0.0,1005.63,0.0
2019-10-13 11:00,50.6304266666667,-96.980755,8.5,12.0,310,978.23,1.1,100,5.48,0.0,1005.72,161.1
2019-10-13 11:10,50.6304283333333,-96.980755,8.7,12.0,310,978.39,1.0,100,5.48,0.0,1005.89,161.1
2019-10-13 11:20,50.6304283333333,-96.9807566666667,9.0,12.0,306,978.46,1.0,100,5.48,0.0,1005.97,161.1
2019-10-13 11:30,50.63043,-96.9807566666667,8.9,12.1,303,978.58,0.8,100,5.47,0.0,1006.09,161.1
2019-10-13 11:40,50.63043,-96.9807566666667,8.2,12.5,305,978.79,0.8,100,5.46,0.0,1006.30,161.1
2019-10-13 11:50,50.63043,-96.9807566666667,7.4,10.2,305,978.96,0.8,100,5.46,0.0,1006.48,161.1
2019-10-13 12:00,50.63043,-96.9807583333333,7.6,11.0,310,979.14,0.8,100,5.45,0.0,1006.66,360.0
2019-10-13 12:10,50.63043,-96.98076,7.9,11.2,311,979.27,0.8,100,5.44,0.0,1006.79,360.0
2019-10-13 12:20,50.6304283333333,-96.980765,7.5,12.5,306,979.39,0.8,100,5.45,0.0,1006.92,360.0
2019-10-13 12:30,50.63043,-96.9807533333333,7.9,11.2,307,979.52,0.7,100,5.46,0.0,1007.05,360.0
2019-10-13 12:40,50.6304333333333,-96.9807583333333,8.5,11.3,308,979.55,0.7,100,5.45,0.0,1007.09,360.0
2019-10-13 12:50,50.6304333333333,-96.9807583333333,8.1,11.1,308,979.66,0.7,100,5.44,0.0,1007.20,360.0
2019-10-13 13:00,50.6304466666667,-96.9807633333333,6.9,9.6,304,979.81,0.7,100,5.43,0.0,1007.36,336.5
2019-10-13 13:10,50.6304433333333,-96.980775,7.1,10.7,303,979.92,0.6,100,5.43,0.0,1007.48,336.5
2019-10-13 13:20,50.6304283333333,-96.98077,8.1,12.1,304,980.03,0.6,100,5.44,0.0,1007.59,336.5
2019-10-13 13:30,50.630435,-96.9807666666667,8.2,11.7,302,980.08,0.6,100,5.43,0.0,1007.65,336.5
2019-10-13 13:40,50.6304366666667,-96.9807633333333,7.4,10.2,305,980.18,0.6,100,5.41,0.0,1007.75,336.5
2019-10-13 13:50,50.6304166666667,-96.980775,7.9,11.5,309,980.27,0.8,100,5.40,0.0,1007.83,336.5
2019-10-13 14:00,50.63041,-96.9807516666667,5.3,8.1,318,980.40,0.9,100,5.40,0.0,1007.96,156.5
2019-10-13 14:10,50.6304516666667,-96.98078,4.6,8.0,294,980.57,0.7,100,5.40,0.0,1008.15,156.5
2019-10-13 14:20,50.63043,-96.9807683333333,6.5,10.2,300,980.58,0.7,100,5.41,0.0,1008.16,156.5
2019-10-13 14:30,50.630435,-96.9807683333333,5.5,9.3,305,980.63,0.8,100,5.41,0.0,1008.22,156.5
2019-10-13 14:40,50.6304266666667,-96.98071,5.9,8.9,307,980.67,0.9,100,5.41,0.0,1008.25,156.5
2019-10-13 14:50,50.6304466666667,-96.9807616666667,6.3,9.6,324,980.71,1.1,100,5.41,0.0,1008.28,156.5
2019-10-13 15:00,50.6304383333333,-96.9807516666667,6.2,8.8,321,980.83,1.2,100,5.42,0.0,1008.41,360.0
2019-10-13 15:10,50.6304333333333,-96.9807633333333,6.9,10.1,306,980.87,1.0,100,5.42,0.0,1008.45,360.0
2019-10-13 15:20,50.63044,-96.980765,6.6,9.8,309,980.89,1.1,100,5.43,0.0,1008.47,360.0
2019-10-13 15:30,50.6304216666667,-96.9807683333333,6.3,9.3,316,980.92,1.2,100,5.43,0.0,1008.49,360.0
2019-10-13 15:40,50.63043,-96.9807616666667,6.1,10.6,306,981.03,1.3,100,5.43,0.0,1008.59,360.0
2019-10-13 15:50,50.6304266666667,-96.9807566666667,6.5,8.9,295,981.15,1.3,99,5.43,0.0,1008.71,360.0
2019-10-13 16:00,50.6304366666667,-96.9807466666667,6.1,8.9,301,981.22,1.3,99,5.43,0.0,1008.79,130.6
2019-10-13 16:10,50.6304383333333,-96.9807516666667,6.7,10.1,313,981.38,1.4,99,5.43,0.0,1008.95,130.6
2019-10-13 16:20,50.6304483333333,-96.98076,6.6,9.5,292,981.43,1.3,99,5.44,0.0,1009.01,130.6
2019-10-13 16:30,50.6304383333333,-96.9807583333333,5.3,11.3,296,981.51,1.4,99,5.44,0.0,1009.07,130.6
2019-10-13 16:40,50.6304416666667,-96.98075,6.8,9.6,294,981.48,1.4,99,5.44,0.0,1009.04,130.6
2019-10-13 16:50,50.6304383333333,-96.9807516666667,6.6,9.3,286,981.54,1.4,99,5.44,0.0,1009.10,130.6
2019-10-13 17:00,50.6304366666667,-96.9807683333333,4.8,7.5,280,981.52,1.5,99,5.44,0.0,1009.08,339.9
2019-10-13 17:10,50.63043,-96.9807566666667,4.9,8.6,291,981.62,1.6,99,5.44,0.0,1009.18,339.9
2019-10-13 17:20,50.6304133333333,-96.9807516666667,6.3,10.1,318,981.79,1.6,99,5.44,0.0,1009.34,339.9
2019-10-13 17:30,50.6304316666667,-96.980755,5.4,9.2,307,981.87,1.7,99,5.45,0.0,1009.41,339.9
2019-10-13 17:40,50.6304366666667,-96.9807566666667,6.6,10.9,304,981.90,1.6,99,5.46,0.0,1009.45,339.9
2019-10-13 17:50,50.6304366666667,-96.9807533333333,5.9,8.8,304,982.05,1.7,99,5.47,0.0,1009.59,339.9
2019-10-13 18:00,50.630435,-96.9807566666667,4.7,7.6,311,982.04,1.9,97,5.48,0.0,1009.57,192.6
2019-10-13 18:10,50.6304333333333,-96.9807566666667,5.7,8.9,322,981.93,2.1,96,5.50,0.0,1009.45,192.6
2019-10-13 18:20,50.63043,-96.9807583333333,6.1,8.2,312,981.96,2.2,92,5.51,0.0,1009.47,192.6
2019-10-13 18:30,50.6304316666667,-96.9807583333333,4.5,6.3,312,981.93,2.3,92,5.51,0.0,1009.44,192.6
2019-10-13 18:40,50.63043,-96.9807733333333,3.9,6.3,283,981.80,2.5,90,5.53,0.0,1009.30,192.6
2019-10-13 18:50,50.630435,-96.9807566666667,5.2,7.5,266,981.81,2.5,91,5.54,0.0,1009.30,192.6
2019-10-13 19:00,50.6304133333333,-96.9807383333333,4.7,6.9,266,981.88,2.5,92,5.56,0.0,1009.36,152.4
2019-10-13 19:10,50.6304166666667,-96.9807583333333,6.1,8.9,277,981.90,2.7,90,5.58,0.0,1009.37,152.4
2019-10-13 19:20,50.6304166666667,-96.98076,6.3,9.4,279,981.83,2.7,90,5.59,0.0,1009.30,152.4
2019-10-13 19:30,50.6304183333333,-96.98076,6.2,10.1,264,981.91,2.5,93,5.61,0.0,1009.40,152.4
2019-10-13 19:40,50.63042,-96.9807616666667,5.2,7.7,260,981.92,2.7,92,5.63,0.0,1009.39,152.4
2019-10-13 19:50,50.6304216666667,-96.9807616666667,6.0,9.6,266,981.94,2.9,89,5.64,0.0,1009.39,152.4
2019-10-13 20:00,50.6304283333333,-96.9807683333333,6.5,9.1,273,981.95,3.3,86,5.65,0.0,1009.37,360.0
2019-10-13 20:10,50.630425,-96.98076,6.1,9.6,274,981.99,3.7,83,5.66,0.0,1009.39,360.0
2019-10-13 20:20,50.630455,-96.9807733333333,6.0,9.5,289,982.04,3.5,83,5.68,0.0,1009.45,360.0
2019-10-13 20:30,50.630425,-96.9807633333333,7.3,10.7,300,982.14,3.4,85,5.69,0.0,1009.54,360.0
2019-10-13 20:40,50.63043,-96.9807616666667,5.5,8.0,291,982.22,3.4,86,5.70,0.0,1009.62,360.0
2019-10-13 20:50,50.630435,-96.9807483333333,5.5,8.7,290,982.27,3.5,87,5.73,0.0,1009.67,360.0
2019-10-13 21:00,50.6304333333333,-96.9807583333333,6.1,9.6,285,982.32,3.5,88,5.74,0.0,1009.71,142.0
2019-10-13 21:10,50.63043,-96.98076,6.8,10.7,290,982.36,3.5,88,5.73,0.0,1009.75,142.0
2019-10-13 21:20,50.6304283333333,-96.9807633333333,7.5,10.9,288,982.42,3.5,89,5.73,0.0,1009.83,142.0
2019-10-13 21:30,50.6304283333333,-96.980765,5.3,8.7,287,982.51,3.5,90,5.73,0.0,1009.91,142.0
2019-10-13 21:40,50.6304283333333,-96.980765,4.2,7.0,272,982.59,3.5,91,5.74,0.0,1009.98,142.0
2019-10-13 21:50,50.6304283333333,-96.9807633333333,6.3,9.7,278,982.61,3.4,95,5.74,0.0,1009.99,142.0
2019-10-13 22:00,50.63043,-96.9807633333333,5.9,9.8,263,982.72,3.1,98,5.75,0.0,1010.10,299.2
2019-10-13 22:10,50.6304316666667,-96.9807633333333,5.7,8.0,264,982.76,2.7,99,5.76,0.0,1010.17,299.2
2019-10-13 22:20,50.63042,-96.980755,4.9,7.4,258,982.80,2.5,100,5.76,0.0,1010.22,299.2
2019-10-13 22:30,50.6304266666667,-96.9807666666667,4.8,7.2,253,982.80,2.5,100,5.76,0.0,1010.22,299.2
2019-10-13 22:40,50.6304483333333,-96.9807616666667,5.1,8.4,248,982.83,2.4,99,5.76,0.0,1010.25,299.2
2019-10-13 22:50,50.630435,-96.9807733333333,5.2,7.4,261,982.85,2.5,99,5.74,0.0,1010.27,299.2
2019-10-13 23:00,50.6304266666667,-96.9807633333333,4.6,8.5,271,982.99,2.5,99,5.74,0.0,1010.41,0.0
2019-10-13 23:10,50.63043,-96.9807633333333,6.8,11.3,262,983.03,2.4,99,5.74,0.0,1010.46,0.0
2019-10-13 23:20,50.63043,-96.9807616666667,6.8,10.7,273,983.13,2.5,99,5.74,0.0,1010.56,0.0
2019-10-13 23:30,50.6304283333333,-96.98076,5.3,8.6,273,983.29,2.4,99,5.74,0.0,1010.72,0.0
2019-10-13 23:40,50.63043,-96.98076,5.7,8.4,270,983.26,2.3,99,5.74,0.0,1010.71,0.0
2019-10-13 23:50,50.6304316666667,-96.98076,5.3,8.1,261,983.33,2.2,99,5.74,0.0,1010.80,0.0
